Location: Cabeza Gorda
(40.0667°N, 4.9667°W)
Time: 05:43:09
(UTC+00:00)

Lacrosse 4 Rocket - Pass Details

Date: 15 January 2026
Orbit: 512 x 564 km, 68.0° (Epoch: 15 February)

Event Time Altitude Azimuth Distance (km) Brightness Sun altitude
Rises 06:56:21 0° 217° (SW) 2,661 4.6 -8.5°
Reaches altitude 10° 06:58:35 10° 222° (SW) 1,766 3.7 -8.1°
Maximum altitude 07:02:26 52° 300° (WNW) 654 1.3 -7.4°
Drops below altitude 10° 07:06:15 10° 18° (NNE) 1,754 3.9 -6.7°
Sets 07:08:28 0° 23° (NNE) 2,640 4.8 -6.3°
